Weather History for EGNH - November, 2012

Change the Weather History Date:

Monday, November 12, 2012

  Actual Average Record
Temperature  
Mean Temperature 48 °F -  
Max Temperature 52 °F 46 °F 57 °F (2011)
Min Temperature 44 °F 39 °F 30 °F (2007)
Degree Days  
Heating Degree Days 17    
Moisture  
Dew Point 48 °F    
Average Humidity 98    
Maximum Humidity 100    
Minimum Humidity 86    
Precipitation  
Precipitation 0.16 in - - ()
Sea Level Pressure  
Sea Level Pressure 29.97 in    
Wind  
Wind Speed 11 mph ()    
Max Wind Speed 18 mph    
Max Gust Speed -    
Visibility 4.7 miles    
Events Rain    
Averages and records for this station are not official NWS values.
T = Trace of Precipitation, MM = Missing Value Source: Averaged Metar Reports

Daily Weather History Graph

Daily Weather History Graph

Search for Another Location

Airport or City:

Trip Planner

Search our weather history database for the weather conditions in past years. The results will help you decide how hot, cold, wet, or windy it might be!

Date:

Astronomy

Nov. 12, 2012 Rise Set
Actual Time 7:33 AM GMT 4:18 PM GMT
Civil Twilight 6:54 AM GMT 4:57 PM GMT
Nautical Twilight 6:12 AM GMT 5:39 PM GMT
Astronomical Twilight 5:30 AM GMT 6:21 PM GMT
Moon 5:31 AM GMT (11/12) 3:19 PM GMT (11/12)
Length of Visible Light 10h 02m
Length of Day
8h 44m
Waning Crescent, 3% of the Moon is Illuminated
Nov 12
Waning Crescent
Nov 13
New
Nov 20
First Quarter
Nov 28
Full
Dec 6
Last Quarter

Hourly Weather History & Observations

Time (GMT) Temp. Windchill Dew Point Humidity Pressure Visibility Wind Dir Wind Speed Gust Speed Precip Events Conditions
2:50 AM 45 °F - 42 °F 86%  in - SSE 8.1 mph - -  
6:20 AM 44.6 °F 38.4 °F 42.8 °F 93% 29.98 in 6.2 mi SE 12.7 mph - N/A   Mostly Cloudy
6:50 AM 44.6 °F 38.1 °F 42.8 °F 93% 29.98 in 6.2 mi SSE 13.8 mph - N/A   Mostly Cloudy
7:20 AM 44.6 °F 37.8 °F 42.8 °F 93% 29.98 in 6.2 mi SSE 15.0 mph - N/A   Mostly Cloudy
7:50 AM 44.6 °F 37.4 °F 44.6 °F 100% 29.98 in 6.2 mi SSE 16.1 mph - N/A   Mostly Cloudy
8:20 AM 44.6 °F 37.4 °F 44.6 °F 100% 29.98 in 5.6 mi SSE 16.1 mph - N/A Rain Light Rain
8:50 AM 45 °F - 43 °F 92%  in - SE 16.1 mph - -  
8:50 AM 46.4 °F 39.8 °F 44.6 °F 93% 29.95 in 5.0 mi SSE 16.1 mph - N/A Rain Light Rain
9:20 AM 46.4 °F 39.5 °F 44.6 °F 93% 29.95 in 5.0 mi SSE 17.3 mph - N/A Rain Rain
9:50 AM 46.4 °F 39.2 °F 44.6 °F 93% 29.95 in 5.0 mi SSE 18.4 mph - N/A Rain Rain
10:20 AM 46.4 °F 39.5 °F 46.4 °F 100% 29.95 in 3.7 mi SSE 17.3 mph - N/A Rain Rain
10:50 AM 46.4 °F 39.5 °F 46.4 °F 100% 29.95 in 2.8 mi SSE 17.3 mph - N/A Rain Rain
11:20 AM 46.4 °F 39.5 °F 46.4 °F 100% 29.95 in 1.6 mi SSE 17.3 mph - N/A Rain Light Rain
11:50 AM 47 °F - 46 °F 94%  in - SSE 15.0 mph - -  
11:50 AM 46.4 °F 40.1 °F 46.4 °F 100% 29.95 in 1.6 mi SSE 15.0 mph - N/A Rain Light Rain
12:20 PM 48.2 °F - 48.2 °F 100% 29.95 in 1.2 mi SSE 16.1 mph - N/A Rain Light Rain
12:50 PM 48.2 °F - 48.2 °F 100% 29.95 in 1.2 mi South 12.7 mph - N/A Rain Light Rain
1:20 PM 48.2 °F - 48.2 °F 100% 29.95 in 1.2 mi South 12.7 mph - N/A Rain Light Rain
1:50 PM 50.0 °F - 50.0 °F 100% 29.95 in 1.2 mi South 10.4 mph - N/A   Light Drizzle
2:20 PM 50.0 °F - 50.0 °F 100% 29.95 in 1.6 mi South 10.4 mph - N/A   Light Drizzle
2:50 PM 51 °F - 51 °F 99%  in - South 10.4 mph - -  
2:50 PM 51.8 °F - 51.8 °F 100% 29.95 in 6.2 mi South 9.2 mph - N/A   Mostly Cloudy
3:20 PM 51.8 °F - 51.8 °F 100% 29.95 in 6.2 mi SSW 9.2 mph - N/A   Mostly Cloudy
3:50 PM 51.8 °F - 51.8 °F 100% 29.98 in 6.2 mi SSW 10.4 mph - N/A   Mostly Cloudy
4:20 PM 51.8 °F - 51.8 °F 100% 29.98 in 6.2 mi SSW 10.4 mph - N/A   Mostly Cloudy
4:50 PM 51.8 °F - 51.8 °F 100% 29.98 in 6.2 mi South 8.1 mph - N/A   Mostly Cloudy
5:20 PM 51.8 °F - 51.8 °F 100% 29.98 in 6.2 mi South 11.5 mph - N/A   Mostly Cloudy
5:50 PM 51 °F - 50 °F 93%  in - SSW 11.5 mph - -  
5:50 PM 51.8 °F - 51.8 °F 100% 30.01 in 6.2 mi SSW 11.5 mph - N/A   Mostly Cloudy
6:20 PM 51.8 °F - 51.8 °F 100% 30.01 in 6.2 mi SSW 11.5 mph - N/A Rain Light Rain
6:50 PM 51.8 °F - 51.8 °F 100% 30.01 in 6.2 mi SSW 10.4 mph - N/A Rain Light Rain
7:20 PM 50.0 °F - 50.0 °F 100% 30.01 in 6.2 mi SW 6.9 mph - N/A Rain Light Rain
7:50 PM 50.0 °F - 50.0 °F 100% 30.01 in 6.2 mi SSW 6.9 mph - N/A Rain Light Rain
8:20 PM 51.8 °F - 51.8 °F 100% 30.04 in 6.2 mi SSW 5.8 mph - N/A Rain Light Rain
8:50 PM 51 °F - 49 °F 92%  in - South 5.8 mph - -  
8:50 PM 51.8 °F - 51.8 °F 100% 30.04 in 6.2 mi SSW 5.8 mph - N/A   Mostly Cloudy
11:50 PM 50 °F - 49 °F 95%  in - SE 6.9 mph - -